Zurück zum Katalog

STARLINK-3162

AktivKommunikationVLEO
NORAD 49411·PAYLOAD·🇺🇸 United States

Gestartet Nov 13, 2021 von Cape Canaveral Space Force Station

Loading…

Nächste Überflüge (nächste 24 Stunden)

TLE

AktuellSource: CelesTrak SupGP

Epoche: Sep 14, 2026, 21:14 UTC

1 49411C 21104D   26257.88520833  .00030110  00000+0  88956-3 0  2576
2 49411  53.1583  78.3189 0001362  82.3602  32.5933 15.34376495    18

Verfolge STARLINK-3162 in Echtzeit mit AllMySat

Download on the App Store